TimeCAT,TemperatureF,Dew PointF,Humidity,Sea Level PressureIn,VisibilityMPH,Wind Direction,Wind SpeedMPH,Gust SpeedMPH,PrecipitationIn,Events,Conditions,WindDirDegrees,DateUTC
12:00 AM,59.0,53.6,82,30.24,-9999.0,East,5.8,-,N/A,,Clear,90,2013-03-28 22:00:00
2:00 AM,58,54,84,,19,ESE,6.9,,,,,110,2013-03-29 00:00:00
2:00 AM,59.0,55.4,88,30.24,-9999.0,ESE,6.9,-,N/A,,Clear,110,2013-03-29 00:00:00
3:00 AM,57.2,53.6,88,30.24,-9999.0,ENE,4.6,-,N/A,,Clear,70,2013-03-29 01:00:00
5:00 AM,55.4,53.6,94,30.24,-9999.0,East,6.9,-,N/A,,Clear,100,2013-03-29 03:00:00
6:00 AM,55.4,55.4,100,30.24,-9999.0,East,8.1,-,N/A,,Clear,100,2013-03-29 04:00:00
7:00 AM,59.0,55.4,88,30.27,-9999.0,East,5.8,-,N/A,,Clear,100,2013-03-29 05:00:00
8:00 AM,64.4,57.2,77,30.30,-9999.0,East,6.9,-,N/A,,Clear,80,2013-03-29 06:00:00
9:00 AM,68.0,55.4,64,30.30,6.2,East,5.8,-,N/A,,Partly Cloudy,90,2013-03-29 07:00:00
10:00 AM,69.8,55.4,60,30.33,6.2,NNE,6.9,-,N/A,,Partly Cloudy,20,2013-03-29 08:00:00
11:00 AM,73.4,53.6,50,30.30,6.2,Variable,4.6,-,N/A,,Partly Cloudy,0,2013-03-29 09:00:00
12:00 PM,75.2,53.6,47,30.27,6.2,Variable,8.1,-,N/A,,Partly Cloudy,0,2013-03-29 10:00:00
1:00 PM,78.8,51.8,39,30.24,6.2,Variable,4.6,-,N/A,,Partly Cloudy,0,2013-03-29 11:00:00
2:00 PM,78,52,29,,19,East,6.9,,,,Partly Cloudy,80,2013-03-29 12:00:00
2:00 PM,78.8,50.0,36,30.21,-9999.0,Variable,6.9,-,N/A,,Clear,0,2013-03-29 12:00:00
3:00 PM,80.6,53.6,39,30.21,-9999.0,Variable,3.5,-,N/A,,Clear,0,2013-03-29 13:00:00
4:00 PM,77.0,53.6,44,30.18,-9999.0,SSE,3.5,-,N/A,,Clear,160,2013-03-29 14:00:00
5:00 PM,75.2,55.4,50,30.21,-9999.0,SSE,8.1,-,N/A,,Clear,150,2013-03-29 15:00:00
6:00 PM,71.6,57.2,60,30.21,6.2,SE,8.1,-,N/A,Rain,Light Rain Showers,140,2013-03-29 16:00:00
7:00 PM,68.0,60.8,78,30.21,-9999.0,East,3.5,-,N/A,,Clear,100,2013-03-29 17:00:00
8:00 PM,69,55,52,,19,SE,9.2,,,,Partly Cloudy,130,2013-03-29 18:00:00
8:00 PM,68.0,55.4,64,30.24,-9999.0,SE,9.2,-,N/A,,Clear,130,2013-03-29 18:00:00
9:00 PM,68.0,53.6,60,30.24,-9999.0,ESE,8.1,-,N/A,,Clear,110,2013-03-29 19:00:00
10:00 PM,66.2,53.6,64,30.24,-9999.0,ESE,9.2,-,N/A,,Clear,110,2013-03-29 20:00:00
11:00 PM,62.6,55.4,77,30.24,-9999.0,East,6.9,-,N/A,,Clear,90,2013-03-29 21:00:00